Location: Bystrzanowice
(50.7080°N, 19.5366°E)
Time: 08:10:09
(UTC+00:00)

Daily predictions for brighter satellites

Satellite Brightness Start Highest point End
(mag) Time Altitude Azimuth Time Altitude Azimuth Time Altitude Azimuth
Cosmos 2322 Rocket 3.2 18:52:44 10° NNW 18:57:56 36° NE 19:03:08 10° ESE
NOSS 3-4 (A) 4.2 18:52:50 10° NW 18:59:10 56° NE 19:06:37 10° ESE
NOSS 3-4 (C) 4.2 18:53:28 10° NW 18:59:49 56° NE 19:07:16 10° ESE
Tsikada Rocket 4.0 18:54:07 10° N 19:00:18 72° ENE 19:06:26 10° SSE
DEBRIS 3.0 18:58:12 10° WSW 19:00:50 58° SSE 19:07:37 10° E
Meteor 2-12 Rocket 4.5 18:56:17 10° N 19:02:25 82° E 19:08:32 10° SSE
Cosmos 2237 4.4 18:56:44 10° NNW 19:02:30 79° WSW 19:08:13 10° SSE
Meteor 1-31 Rocket 3.9 18:59:20 10° SSW 19:02:34 37° W 19:05:50 10° NNW
Cosmos 2082 Rocket 2.2 18:57:53 10° SSW 19:03:36 77° ESE 19:09:20 10° NNE
Cosmos 2016 Rocket 4.0 18:58:10 10° S 19:04:24 83° E 19:10:36 10° N
Cosmos 2369 4.1 19:01:19 10° NNW 19:07:00 67° WSW 19:12:40 10° SSE
ATLAS 2AS CENTAUR R/B 4.3 19:02:33 10° W 19:08:55 38° NNW 19:15:13 10° NE
CZ-4C R/B 3.0 19:08:44 10° WSW 19:13:04 49° NW 19:18:42 10° NE
CZ-4B R/B 3.6 19:15:22 10° SE 19:18:21 29° ENE 19:21:26 10° N
Cosmos 2151 3.3 19:15:01 10° N 19:19:00 47° ENE 19:22:56 10° SSE
USA 306 2.8 19:17:25 10° W 19:20:32 45° NNW 19:22:41 10° ENE
Cosmos 2098 Rocket 4.4 19:17:04 10° SE 19:20:39 22° E 19:23:53 10° NE
Ariane Rocket 3.8 19:19:04 10° SE 19:23:43 38° ENE 19:28:24 10° N
Cosmos 1626 Rocket 3.6 19:19:34 10° N 19:23:57 73° ENE 19:28:20 10° SSE
Cosmos 2278 3.9 19:19:36 10° NNW 19:25:19 66° ENE 19:30:44 11° SE
Cosmos 1782 3.5 19:25:18 10° SSW 19:28:42 48° WNW 19:32:09 10° N
Spot 2 Rocket 3.6 19:23:55 10° SSE 19:28:56 84° WSW 19:34:01 10° NNW
SL-16 R/B 2.2 19:23:42 10° NNW 19:29:25 85° ENE 19:34:53 11° SSE
Cosmos 1607 4.4 19:24:52 10° SW 19:31:02 69° NW 19:37:20 10° NE
ERS-1 Rocket 4.2 19:27:32 10° SSW 19:32:14 40° W 19:36:59 10° NNW
SPOT 3 Rocket 3.8 19:28:51 11° SSE 19:33:46 58° ENE 19:38:49 10° N
MOS 1-B 4.5 19:31:00 10° SSE 19:36:48 81° WSW 19:42:39 10° NNW
Cosmos 1980 Rocket 4.4 19:38:52 10° NW 19:42:58 21° W 19:47:03 10° SSW
Cosmos 2061 Rocket 4.2 19:37:34 10° SSW 19:43:48 81° W 19:50:11 10° N
CZ-4 R/B 3.9 19:42:41 10° SW 19:44:51 15° W 19:47:01 10° NW
USA 186 1.9 19:42:50 11° S 19:45:25 53° W 19:48:09 10° NNW
Cosmos 2228 4.1 19:42:34 10° SSW 19:46:31 45° WNW 19:50:28 10° N
USA 290 3.6 19:45:44 17° SE 19:46:46 20° ESE 19:49:09 10° NE
SL-08 R/B 3.7 19:42:20 10° N 19:47:09 69° WNW 19:51:50 10° SSW
CZ-4B R/B 3.5 19:43:25 14° SSE 19:47:29 61° ENE 19:52:18 10° N
COSMOS 2406 3.2 19:41:45 10° SSW 19:47:30 81° ESE 19:53:16 10° NNE
Cosmos 1933 3.2 19:45:13 10° S 19:48:58 64° E 19:52:45 10° NNE
ISS -3.6 19:48:06 10° W 19:51:27 73° N 19:54:48 10° E
Cosmos 1461 2.4 19:47:56 10° SW 19:51:38 78° SE 19:55:19 10° NE
NOSS 3 (A) 4.0 19:49:30 10° NW 19:51:45 82° SW 19:53:22 22° SE
Cosmos 1992 Rocket 4.3 19:46:33 10° SSW 19:51:45 71° WNW 19:56:58 10° NNE
Terra 3.6 19:48:44 10° SSW 19:52:47 29° W 19:56:53 10° NNW
Okean 1 4.3 19:51:56 17° SE 19:53:35 24° E 19:56:32 10° NE
Meteor 1-20 Rocket 4.3 19:48:08 10° NNW 19:53:45 79° W 19:59:21 10° S
Okean O Rocket 2.4 19:53:04 10° S 19:57:13 46° W 20:01:22 10° NNW
Cosmos 1777 Rocket 4.0 19:53:57 10° NNW 19:59:13 77° ENE 20:03:12 17° SSE
Cosmos 2333 Rocket 2.4 19:54:01 10° NW 19:59:42 68° WSW 20:04:29 15° SSE
Cosmos 1544 Rocket 3.8 20:00:40 10° SSW 20:04:58 69° W 20:09:18 10° N
NOSS 3-3 (A) 4.3 20:00:39 10° WSW 20:05:56 63° NW 20:12:25 10° NE
Cosmos 1437 Rocket 2.8 20:03:56 10° SSW 20:07:28 70° WNW 20:11:05 10° N
Cosmos 1503 Rocket 4.0 20:03:58 10° NNW 20:09:11 72° ENE 20:12:49 20° SSE
Cosmos 2360 Rocket 2.2 20:04:05 10° NNW 20:09:48 90° ENE 20:13:59 19° SSE
Okean 1-7 Rocket 3.6 20:05:26 10° N 20:09:54 70° ENE 20:13:00 20° SSE
Cosmos 2034 Rocket 4.4 20:13:55 17° SSE 20:18:31 49° E 20:24:35 10° NNE
Okean-O 4.2 20:15:39 10° SSW 20:19:31 30° W 20:23:24 10° NNW
Cosmos 2333 4.2 20:14:01 10° NNW 20:19:47 90° E 20:23:47 21° SSE
Cosmos 1486 Rocket 4.2 20:14:52 10° NNW 20:20:06 68° WSW 20:23:55 19° S
CZ-2C R/B 1.8 20:21:09 33° SSE 20:22:15 87° WSW 20:25:03 10° NNW
Cosmos 2219 Rocket 2.3 20:16:52 10° NNW 20:22:34 75° ENE 20:26:24 21° SE
Cosmos 1766 4.1 20:20:11 10° NNE 20:22:59 26° ENE 20:24:01 22° ESE
Cosmos 1354 Rocket 4.1 20:18:54 10° NNW 20:24:09 68° ENE 20:27:29 22° SE
Nadezhda 4 Rocket 4.0 20:24:43 10° N 20:30:52 87° W 20:35:27 19° S
IRS-1C Rocket 4.4 20:27:08 17° S 20:31:11 64° WSW 20:36:27 10° NNW
Cosmos 540 Rocket 3.7 20:28:07 20° S 20:31:28 49° ESE 20:36:24 10° NNE
Cosmos 1825 Rocket 3.5 20:29:54 10° NNW 20:34:16 81° W 20:36:52 24° S
Cosmos 1805 3.7 20:31:39 10° NNW 20:34:47 43° W 20:36:34 21° SSW
Meteor 2-10 4.4 20:33:02 10° NNW 20:38:46 70° W 20:42:50 20° S
Aureole 1 Rocket 4.1 20:34:21 10° NNW 20:40:03 64° ENE 20:44:26 22° SE
Cosmos 1953 Rocket 3.5 20:36:41 10° N 20:41:03 71° E 20:43:09 29° SSE
Helios 1A 3.7 20:37:54 10° NNE 20:41:27 32° E 20:42:24 28° SE
Cosmos 2322 Rocket 2.7 20:36:42 10° NW 20:42:11 52° WSW 20:45:49 21° S
RESURS DK-1 3.5 20:39:41 10° NNW 20:43:19 32° NE 20:45:33 19° E
USA 306 2.9 20:45:36 10° WNW 20:47:38 26° N 20:47:38 26° N
Cosmos 2082 Rocket 4.5 20:43:29 10° W 20:48:17 27° NW 20:53:05 10° NNE
Cosmos 2195 Rocket 4.4 20:42:52 10° N 20:49:08 89° E 20:53:05 24° S
TSX-5 4.0 20:47:06 10° NNW 20:50:06 43° NE 20:51:15 30° ESE
NOSS 3-4 (A) 4.3 20:43:40 10° NW 20:50:10 50° WSW 20:55:06 22° S
NOSS 3-4 (C) 4.3 20:44:17 10° NW 20:50:49 51° WSW 20:55:45 22° S
Cosmos 1707 2.2 20:52:04 45° E 20:52:07 46° E 20:54:52 10° NNE
CZ-4B R/B 4.5 20:49:58 13° SW 20:52:08 22° W 20:54:55 10° NW
Cosmos 468 Rocket 4.5 20:50:15 27° SSE 20:52:33 43° ESE 20:57:31 10° NE
Cosmos 2026 Rocket 4.0 20:46:45 10° N 20:53:11 82° E 20:57:08 25° SSE
Geosat 4.4 20:48:45 10° NE 20:53:31 43° ESE 20:55:36 28° SSE
Cosmos 2058 Rocket 3.3 20:53:53 32° SSE 20:55:30 50° E 20:59:43 10° NNE
Cosmos 2098 Rocket 4.0 20:53:24 11° SSW 20:57:47 44° WNW 21:01:41 10° N
Cosmos 1076 Rocket 3.7 20:54:03 10° NNW 20:58:16 62° W 21:00:20 28° SSW
Cosmos 44 3.5 20:54:36 10° NW 21:00:02 84° SW 21:02:45 30° SE
Cosmos 2237 Rocket 3.7 20:55:41 10° NNW 21:00:39 30° NE 21:05:22 11° ESE
Ariane Rocket 4.2 20:59:02 15° SSW 21:02:37 35° W 21:07:16 10° NNW
SL-16 R/B 4.2 21:08:59 10° WNW 21:12:46 19° W 21:16:32 10° SW
Meteor 1-26 Rocket 4.2 21:09:41 25° S 21:13:04 87° E 21:18:50 10° NNE
COSMOS 2428 2.9 21:08:48 10° NNW 21:14:29 66° ENE 21:17:37 27° SE
Cosmos 1763 Rocket 3.7 21:10:53 13° SSW 21:15:34 71° WNW 21:20:51 10° NNE
Cosmos 1470 2.9 21:12:29 10° N 21:15:41 43° ENE 21:16:07 40° E
ARIANE 5 R/B 3.4 21:15:19 28° ESE 21:17:09 42° ENE 21:21:22 10° N
ALOS 2 3.6 21:17:23 25° ESE 21:19:11 36° ENE 21:23:14 10° N
USA 290 4.1 21:18:07 11° WSW 21:20:43 28° WNW 21:23:31 10° N
Cosmos 1898 Rocket 3.6 21:16:48 10° NNW 21:22:00 72° ENE 21:24:23 33° SE
Meteor 1-11 Rocket 4.5 21:19:33 10° N 21:24:56 42° ENE 21:27:43 25° SE
Helios 1B rocket 1.9 21:24:22 56° SSE 21:25:02 86° ENE 21:28:34 10° NNW
Meteor 2-2 Rocket 4.2 21:22:13 27° SSW 21:25:31 89° WNW 21:31:22 10° NNE
ISS -3.8 21:24:57 10° WNW 21:28:15 65° SSW 21:28:15 65° SSW
BREEZE-M DEB (TANK) 3.9 21:27:59 10° W 21:28:12 12° W 21:28:12 12° W
Cosmos 1536 3.1 21:32:32 10° NNW 21:36:07 50° W 21:36:59 40° SW
CSL-04 DEB 4.0 21:36:01 58° S 21:36:40 83° WSW 21:40:20 10° NNW
SAR-Lupe-2 4.5 21:37:46 31° E 21:38:17 33° ENE 21:41:20 10° N
Cosmos-2242 3.6 21:37:47 27° SW 21:39:42 49° WNW 21:43:43 10° N
Cosmos 1092 Rocket 4.4 21:35:57 10° NNW 21:41:57 55° W 21:45:20 26° SSW
Cosmos 2333 Rocket 4.5 21:40:48 10° WNW 21:42:53 12° W 21:45:00 10° WSW
NOSS 0 Rocket 3.9 21:37:29 10° NNW 21:43:42 82° ENE 21:46:51 31° SE
KORONAS-FOTON 3.9 21:43:53 45° WSW 21:44:33 55° WNW 21:47:54 10° N
Cosmos 2297 Rocket 3.0 21:46:14 30° SE 21:47:34 34° ESE 21:52:35 10° NE
Cosmos 841 Rocket 3.5 21:47:27 39° S 21:49:16 63° ESE 21:54:27 10° NNE
Meteor 1-14 Rocket 4.1 21:46:50 10° NNW 21:52:24 81° W 21:54:40 37° S
Cosmos 2360 Rocket 4.2 21:49:25 10° WNW 21:52:59 17° W 21:55:44 13° SW
Cosmos 1842 3.2 21:56:49 49° W 21:57:04 50° WNW 22:00:10 10° N
Cosmos 2322 3.9 21:52:35 10° NW 21:58:11 60° WSW 22:00:18 37° S
Cosmos 1975 2.5 21:55:06 10° NNW 21:58:47 74° W 21:59:14 63° SSW
Spot 4 3.8 21:57:15 43° S 21:58:50 84° WSW 22:03:40 10° NNW
ACS3 Solar Sail 3.7 21:56:20 10° NE 21:59:50 16° E 22:02:41 12° ESE
Meteor 2-6 Rocket 4.5 21:58:28 28° SSW 22:01:42 72° WNW 22:07:40 10° N
Cosmos 1812 Rocket 3.5 22:02:59 49° SSE 22:04:02 70° E 22:08:27 10° NNE
Cosmos 2221 2.3 22:03:18 52° SSW 22:04:17 87° W 22:08:31 10° N
Cosmos 2219 Rocket 3.8 22:01:42 10° NW 22:05:54 22° W 22:08:05 17° SW
Cosmos 1271 Rocket 2.9 22:06:21 44° WSW 22:06:51 49° WNW 22:10:09 10° N
MetOp-A 4.2 22:05:00 34° SE 22:06:53 55° ENE 22:11:24 10° N
ARGOS Delta rocket 4.0 22:11:17 10° NNE 22:16:29 89° ESE 22:18:32 39° SSW
Cosmos 2279 Rocket 4.3 22:16:39 27° SSW 22:20:07 60° WNW 22:26:20 10° N
RESURS DK-1 3.2 22:17:04 10° NW 22:20:38 32° WSW 22:20:45 32° WSW
Meteor 2-20 4.4 22:19:22 36° S 22:21:56 72° E 22:28:00 10° NNE
NOSS 8 (F) 4.3 22:19:34 10° NW 22:22:21 68° NNE 22:22:21 68° NNE
Cosmos 858 Rocket 4.5 22:21:13 10° NNW 22:26:22 68° WSW 22:27:57 43° S
Meteor 1-19 Rocket 4.4 22:24:37 33° SSW 22:27:20 73° WNW 22:33:19 10° N
Cosmos 1937 Rocket 3.9 22:23:53 10° NW 22:28:47 46° WSW 22:30:09 37° SSW
CZ-2C R/B 4.3 22:28:06 10° N 22:32:25 48° WNW 22:34:15 30° SW
SL-16 R/B 3.4 22:28:29 10° NNW 22:33:50 40° NE 22:38:56 11° ESE
GP-B 3.0 22:30:46 10° N 22:35:09 80° W 22:36:11 52° SSW
CZ-2C R/B 2.6 22:39:09 38° SSE 22:41:15 79° ENE 22:46:28 10° NNW
Lacrosse 4 Rocket 1.5 22:42:44 50° SE 22:42:55 51° ESE 22:46:53 10° NE
Cosmos 2237 Rocket 2.2 22:39:31 10° NW 22:45:09 66° WSW 22:47:09 40° S
SeaSat 1 3.1 22:42:54 20° ESE 22:46:08 52° NE 22:50:55 10° NNW
USA 234 3.3 22:39:50 10° ENE 22:46:19 59° SE 22:49:36 30° SSW
Cosmos 2266 Rocket 4.3 22:42:06 10° NNW 22:47:58 54° W 22:50:26 33° SSW
Cosmos 1980 3.8 22:43:50 10° NW 22:49:22 57° WSW 22:51:12 39° S
CZ-4C R/B 4.5 22:47:31 10° NW 22:52:43 30° NNE 22:59:12 10° ENE
Intercosmos 24 3.9 22:49:27 10° NNW 22:53:12 53° W 22:53:29 51° WSW
ARIANE 5 R/B 4.0 22:52:41 24° WSW 22:53:35 26° W 22:57:21 10° NW
ATLAS 2AS CENTAUR R/B 3.9 22:47:52 10° NW 22:54:17 41° NNE 23:00:40 10° E
ALOS 2 3.8 22:54:46 27° WSW 22:55:35 29° W 22:59:27 10° NNW
Cosmos 2227 Rocket 2.6 22:55:49 36° SSE 22:57:39 48° ESE 23:03:06 10° NE
COSMOS 2428 4.0 22:53:43 10° NW 22:58:15 25° WSW 22:59:35 23° SW
Meteor 2-4 Rocket 3.6 23:00:13 40° SSW 23:02:17 90° W 23:07:54 10° NNE
BlueWalker 3 2.4 23:05:22 42° ESE 23:05:22 42° ESE 23:08:03 10° ENE
Cosmos 2263 Rocket 3.0 23:03:56 29° SE 23:05:44 36° ESE 23:10:48 10° NE
CZ-2C R/B 3.4 23:01:02 10° NNE 23:06:48 75° WNW 23:09:26 34° SSW
Cosmos 1125 Rocket 4.1 23:04:00 10° NNW 23:09:13 55° ENE 23:12:45 20° SE
Cosmos 1766 Rocket 3.8 23:05:08 10° NNW 23:09:19 51° W 23:10:08 44° SW
Cosmos 1758 3.7 23:06:55 10° N 23:10:27 49° ENE 23:11:14 41° ESE
Cosmos 1238 Rocket 3.3 23:14:04 42° WSW 23:15:02 53° WNW 23:19:23 10° N
Cosmos 1655 Rocket 4.2 23:15:22 10° NNW 23:21:30 60° W 23:24:14 33° SSW
SWARM C 4.3 23:19:46 10° N 23:23:02 85° W 23:23:05 84° SW
SWARM A 4.0 23:19:53 10° N 23:23:08 81° E 23:23:15 78° SE
Cosmos 1814 Rocket 3.9 23:21:58 39° SSW 23:23:57 89° ESE 23:29:14 10° NNE
Alouette 2 Rocket 4.2 23:23:40 10° NNW 23:27:20 42° W 23:28:18 37° SW
Meteor 2-11 Rocket 4.4 23:22:18 10° NNW 23:28:24 72° W 23:31:13 33° S
Meteor 1-27 Rocket 4.4 23:25:49 26° SW 23:28:42 46° WNW 23:34:13 10° N
Meteor 2-10 Rocket 3.8 23:24:29 10° NNW 23:29:57 61° W 23:32:13 35° SSW
Cosmos 2297 Rocket 2.8 23:27:59 22° WSW 23:31:25 50° NW 23:36:56 10° NNE
Cosmos 1340 Rocket 3.2 23:27:41 10° N 23:31:28 55° ENE 23:32:47 35° SE
CENTAUR R/B 4.2 23:31:16 12° SE 23:33:53 16° ESE 23:37:35 10° ENE
Cosmos 1151 Rocket 3.4 23:34:52 37° SSE 23:36:15 56° E 23:40:30 10° NNE
BREEZE-M DEB (TANK) 3.7 23:39:17 30° SE 23:39:17 30° SE 23:42:19 10° ESE
DELTA 2 DEB (DPAF) 3.5 23:34:52 10° NNE 23:38:27 82° ESE 23:39:02 59° S
SL-14 R/B 3.1 23:39:49 54° SSW 23:40:36 81° WNW 23:44:24 10° N
CZ-4C R/B 2.9 23:37:51 10° N 23:41:16 74° WNW 23:41:47 59° SW
Cosmos 1244 Rocket 4.5 23:35:40 10° NNW 23:41:47 69° W 23:44:47 31° S
Cosmos 158 Rocket 4.3 23:39:40 30° SW 23:42:13 62° WNW 23:47:31 10° NNE
ACS3 Solar Sail 1.7 23:37:05 10° NNE 23:43:07 82° ESE 23:46:10 31° S
Cosmos 1953 3.9 23:41:27 10° NNE 23:44:36 27° ENE 23:46:58 14° ESE
Landsat 5 3.9 23:43:19 10° N 23:47:16 49° WNW 23:48:28 36° WSW
Cosmos 1500 Rocket 3.5 23:44:48 10° N 23:49:17 88° WSW 23:50:57 38° S
IDEFIX/ARIANE 42P 3.8 23:44:50 10° NNE 23:49:35 34° E 23:52:42 19° SSE
Cosmos 1703 4.0 23:54:48 28° SE 23:55:35 33° E 23:58:30 10° NNE
